Weather Roundup
Issued by NWS Springfield, MO

Home | Current Version | Previous Version | Text Only | Print | Product List | Glossary On
Versions: 1 2 3 4 5 6 7 8 9 10 11 12 13 14 15 16 17 18 19 20 21 22 23 24 25 26 27 28 29 30 31 32 33 34 35 36 37 38 39 40 41 42 43 44 45 46 47 48 49 50
000
NZUS99 KSGF 160707
HRRSGF

HOURLY WEATHER
NATIONAL WEATHER SERVICE SPRINGFIELD MO
100 AM CST TUE JAN 16 2018

......SGF CWA......

CITY           SKY/WX    TMP DP  RH WIND       PRES   REMARKS
SPRINGFIELD    CLOUDY     1  -8  66 NW12      30.61F WCI -16
JOPLIN         CLOUDY     2  -4  76 NW8       30.70S WCI -12
WEST PLAINS    CLOUDY     7  -2  66 NW13G23   30.57S WCI  -9
ROLLA          CLEAR      1  -6  72 NW12      30.58F WCI -16
OSAGE BEACH    CLOUDY     2  -6  69 VRB7      30.65S WCI -11

......SURROUNDING SGF CWA......

CITY           SKY/WX    TMP DP  RH WIND       PRES   REMARKS
CHANUTE        CLOUDY     6  -4  63 N15       30.73S WCI -12
PARSONS        CLOUDY     8   1  73 N13       30.74S WCI  -8
COFFEYVILLE    CLOUDY     7   0  73 NW13      30.75S WCI  -9
EMPORIA        CLEAR      2  -7  66 N18G25    30.72S WCI -19
GROVE OK       CLOUDY    10   3  72 N10       30.72S WCI  -3
ROGERS AR      CLOUDY     6  -1  73 NW10      30.65R WCI  -9
SILOAM SPRINGS CLOUDY     7  -1  70 N16       30.67R WCI -11
HARRISON AR    PTCLDY     8  -1  66 N13G23    30.58F WCI  -8
NEAR YELLVILLE CLOUDY    12   2  64 NW15      30.64S WCI  -4

......KANSAS AND MISSOURI......

CITY           SKY/WX    TMP DP  RH WIND       PRES   REMARKS
KANSAS CTY INT CLEAR     -2  -9  72 NW12      30.67F WCI -20
DOWNTOWN KC    CLEAR      2  -8  63 NW8       30.72F WCI -12
COLUMBIA       CLEAR      0  -8  69 NW8       30.61S WCI -14
SEDALIA        PTCLDY     1  -7  68 NW8       30.66S WCI -13
ST JOSEPH        N/A    N/A N/A N/A MISG      30.72F
ST LOUIS       PTCLDY     4  -5  66 NW16G26   30.59S WCI -15
SPIRIT OF STL  CLEAR      4  -5  66 W12G17    30.61S WCI -12
KIRKSVILLE     CLEAR     -4  -7  87 W12       30.59F WCI -22
WICHITA        PTCLDY     7  -2  66 N9        30.75S WCI  -7
TOPEKA         CLEAR      1  -8  66 NW8       30.74S WCI -13
OLATHE         CLEAR     -1 -10  65 N12       30.68F WCI -18

......TENNESSEE......

CITY           SKY/WX    TMP DP  RH WIND       PRES   REMARKS
MEMPHIS        LGT SNOW  22  18  85 N18G25    30.53R FOG     WCI   7
NASHVILLE      CLOUDY    24  16  71 N10       30.45S WCI  14

......ARKANSAS.......

CITY           SKY/WX    TMP DP  RH WIND       PRES   REMARKS
FAYETTEVILLE   CLOUDY     9   0  67 N12G23    30.64R WCI  -6
FT SMITH       CLOUDY    17   2  51 N16       30.70R WCI   2
LITTLE ROCK    LGT SNOW  20  17  88 N15       30.60R VSB 3/4 WCI   6

......OKLAHOMA.......

CITY           SKY/WX    TMP DP  RH WIND       PRES   REMARKS
TULSA          CLOUDY    10   0  63 N15       30.76F WCI  -7
PONCA CITY     CLEAR      7  -2  66 NW8       30.78F WCI  -6
MCALESTER      PTCLDY    16   5  62 N17G24    30.70R WCI   0
OKLAHOMA CITY  CLOUDY    14  -3  47 N24G40    30.72R WCI  -5

......IOWA............

CITY           SKY/WX    TMP DP  RH WIND       PRES   REMARKS
DES MOINES     FLURRIES  -5 -13  68 NW16      30.61S WCI -27
QUAD CITIES    FAIR       0  -7  72 W17       30.49F WCI -21

......ILLINOIS........

CITY           SKY/WX    TMP DP  RH WIND       PRES   REMARKS
QUINCY         CLEAR     -2  -9  72 W12       30.57F WCI -20
CHICAGO        LGT SNOW  10   5  80 W12       30.32S WCI  -5




USA.gov is the U.S. government's official web portal to all federal, state and local government web resources and services.